User: anonymous
Location: Caltech
(34.1382°N, 118.1253°W)
Time: 00:41:20
(UTC-07:00)
Language:

Cosmos 2219 - Orbit

View from above orbital plane
View from above orbital plane
View from above satellite
View from above satellite

Ground track
Ground track

The orbit data is extracted from the following two-line orbital elements,

1 22219U 92076A   14260.08936701  .00000395  00000-0  23439-3 0  5972
2 22219 071.0585 135.0054 0016917 124.8842 031.8849 14.13486296126326
Epoch (UTC): 17 September 2014 02:08:41
Eccentricity: 0.0016917
inclination: 71.0585°
perigee height: 835 km
apogee height: 859 km
right ascension of ascending node: 135.0054°
argument of perigee: 124.8842°
revolutions per day: 14.13486296
mean anomaly at epoch: 31.8849°
orbit number at epoch: 12632

The dashed part of the orbit path shows where the satellite is in the earth's shadow,  

DLR